Location: Fiddletown
(38.4917°N, 120.6633°W)
Time: 14:11:16
(UTC-07:00)

Envisat - Visible Passes

Search period start: 27 July 2016 00:00
Search period end: 06 August 2016 00:00
Orbit: 764 x 766 km, 98.3° (Epoch: 27 July)

Date Brightness Start Highest point End Pass type
(mag) Time Alt. Az. Time Alt. Az. Time Alt. Az.
27 Jul 3.0 21:26:18 12° SSE 21:30:58 75° ENE 21:36:03 10° N visible
27 Jul 5.6 23:09:00 10° WSW 23:10:29 11° W 23:11:59 10° WNW visible
28 Jul 3.9 20:49:58 10° SE 20:54:28 33° ENE 20:58:59 10° N visible
28 Jul 4.8 22:29:27 11° SSW 22:33:27 27° W 22:37:43 10° NW visible
29 Jul 3.4 21:52:23 14° S 21:56:38 61° W 22:01:40 10° NNW visible
30 Jul 3.1 21:15:20 12° SSE 21:19:59 58° ENE 21:24:59 10° N visible
30 Jul 5.5 22:56:33 10° SW 22:59:21 15° W 23:02:09 10° WNW visible
31 Jul 4.1 20:39:22 10° ESE 20:43:33 26° ENE 20:47:44 10° NNE visible
31 Jul 4.4 22:18:29 13° SSW 22:22:23 34° W 22:26:59 10° NNW visible
01 Aug 3.1 21:41:26 15° S 21:45:36 79° WSW 21:50:43 10° NNW visible
02 Aug 3.4 21:04:23 11° SE 21:09:02 46° ENE 21:13:52 10° N visible
02 Aug 5.2 22:44:42 10° SW 22:48:14 19° W 22:51:48 10° NW visible
03 Aug 4.0 22:07:32 16° SSW 22:11:19 43° W 22:16:10 10° NNW visible
04 Aug 2.9 21:30:30 16° SSE 21:34:36 82° ENE 21:39:43 10° N visible
05 Aug 3.7 20:53:29 10° SE 20:58:05 36° ENE 21:02:42 10° N visible
05 Aug 4.9 22:33:40 13° SW 22:37:08 24° W 22:41:14 10° NW visible
